Regional Weather Roundup
Issued by NWS

Home | Current Version | Previous Version | Graphics & Text | Print | Product List | Glossary On
Versions: 1 2 3 4 5 6 7 8 9 10 11 12 13 14 15 16 17 18 19 20 21 22 23 24 25 26 27 28 29 30 31 32 33 34 35 36 37 38 39 40 41 42 43 44 45 46 47 48 49 50
000
ASUS45 KCYS 241210
RWRWY

WYOMING REGIONAL WEATHER ROUNDUP
NATIONAL WEATHER SERVICE CHEYENNE WY
600 AM MDT WED MAY 24 2017

NOTE:  "FAIR" INDICATES FEW OR NO CLOUDS BELOW 12,000 FEET
WITH NO SIGNIFICANT WEATHER AND/OR OBSTRUCTIONS TO VISIBILITY.

WYZ001-241300-
YELLOWSTONE NATIONAL PARK

CITY           SKY/WX    TMP DP  RH WIND       PRES   REMARKS
LK YELLOWSTONE   N/A     30  29  96 CALM      29.95F
6HR MIN TEMP:  29; 6HR MAX TEMP:  35;

W YELLOWSTONE  NOT AVBL

$$
WYZ002>013-054>058-071-098>099-241300-
NORTHERN WYOMING

CITY           SKY/WX    TMP DP  RH WIND       PRES   REMARKS
JACKSON        FAIR      34  32  93 NE3       29.92F
CODY           FAIR      64  33  31 W10G20    29.71F
GREYBULL       FAIR      43  34  70 SE3       29.69F
6HR MIN TEMP:  43; 6HR MAX TEMP:  57;

WORLAND        FAIR      42  37  82 S7        29.70F
6HR MIN TEMP:  41; 6HR MAX TEMP:  52;

SHERIDAN       FAIR      39  36  89 CALM      29.62F
6HR MIN TEMP:  38; 6HR MAX TEMP:  47;

BUFFALO        FAIR      51  37  58 SW12      29.68F
6HR MIN TEMP:  46; 6HR MAX TEMP:  56;

GILLETTE       FAIR      45  37  73 S14       29.69F
6HR MIN TEMP:  45; 6HR MAX TEMP:  49;

HULETT         FAIR      50  32  50 SW5       29.70F
NEWCASTLE      FAIR      45  32  61 E16G23    29.78F

$$
WYZ014>020-022>026-101>103-241300-
CENTRAL WYOMING

CITY           SKY/WX    TMP DP  RH WIND       PRES   REMARKS
BIG PINEY      FAIR      32  29  88 N3        29.97F
6HR MIN TEMP:  31; 6HR MAX TEMP:  43;

PINEDALE       FAIR      30  28  93 NW3       29.98F
DUBOIS         NOT AVBL
LANDER         FAIR      42  34  73 SE6       29.79F
6HR MIN TEMP:  42; 6HR MAX TEMP:  51;

RIVERTON       FAIR      44  35  70 SW10      29.80F
6HR MIN TEMP:  43; 6HR MAX TEMP:  52;

CASPER         FAIR      49  37  63 SW12      29.79F
6HR MIN TEMP:  40; 6HR MAX TEMP:  50;

DOUGLAS        FAIR      37  34  89 CALM      29.78F
6HR MIN TEMP:  35; 6HR MAX TEMP:  42;


$$
WYZ021-027>030-104>119-241300-
SOUTHERN WYOMING

CITY           SKY/WX    TMP DP  RH WIND       PRES   REMARKS
EVANSTON       FAIR      44  31  60 SW13      30.01F
6HR MIN TEMP:  43; 6HR MAX TEMP:  51;

KEMMERER         N/A     41  32  70 W9        30.00F
FORT BRIDGER   FAIR      55  29  37 SW15G25   30.02F
ROCK SPRINGS   FAIR      50  30  46 W17       29.95F
6HR MIN TEMP:  49; 6HR MAX TEMP:  55;

RAWLINS        FAIR      50  33  52 SW20G29   29.91F
6HR MIN TEMP:  39; 6HR MAX TEMP:  50;

SARATOGA       FAIR      41  32  70 S10       29.98F
LARAMIE        FAIR      41  32  70 MISG      29.92F
6HR MIN TEMP:  30; 6HR MAX TEMP:  44;

CHEYENNE       FAIR      42  32  67 SW12      29.86F
6HR MIN TEMP:  35; 6HR MAX TEMP:  42;

TORRINGTON     FAIR      37  35  92 SE9       29.78F WCI  30
6HR MIN TEMP:  37; 6HR MAX TEMP:  44;

PINE BLUFFS    FAIR      32  32 100 MISG      29.86F

$$



USA.gov is the U.S. government's official web portal to all federal, state and local government web resources and services.